Date String (YYYY-MM-DD hh:mm:ss) UTC,Instrument flags,absolute air pressure of the measurement (hPa),sample flow rate (lpm),inlet stack bypass flow (lpm),air temperature of the measurement (°C),ambient temperature measured by the external sensor (°C),aerosol sample conditioner tube jacket temperature (°C),OPC LED temperature (°C),internal box temperature (°C),relative humidity of the measurement (%),span deviation,mass concentration of particles derived from Lorenz-Mie calculation of OPC scattering (μg/m³),mass concentration of particles derived from Lorenz-Mie calculation of OPC scattering (μg/m³),mass concentration of particles derived from Lorenz-Mie calculation of OPC scattering (μg/m³)
DateTimeUTC,F1_M11,P_M11,Q1_M11,Q2_M11,T1_M11,T2_M11,T3_M11,T4_M11,T5_M11,U1_M11,ZSPAN_M11,X0_M11,X2_M11,X1_M11
2023-11-26 03:00:00,SystemResetWarning,0829.2,4.99,000.00,018.9,018.8,000.0,027.2,020.2,13.4,0003.0,0008.58,0006.36,0006.14
2023-11-26 03:01:00,SystemResetWarning,0829.1,4.99,000.00,018.9,018.6,000.0,027.2,020.0,13.4,0003.2,0008.57,0006.34,0006.11
2023-11-26 03:02:00,SystemResetWarning,0829.2,5.01,000.00,018.9,018.5,000.0,027.2,020.0,13.4,0003.3,0008.62,0006.35,0006.10
2023-11-26 03:03:00,SystemResetWarning,0829.2,5.01,000.00,018.8,018.3,000.0,027.2,020.0,13.4,0004.0,0008.69,0006.33,0006.08
2023-11-26 03:04:00,SystemResetWarning,0829.2,5.00,000.00,018.8,018.2,000.0,027.2,020.0,13.4,0004.1,0008.74,0006.32,0006.04
2023-11-26 03:05:00,SystemResetWarning,0829.2,4.99,000.00,018.8,018.1,000.0,027.2,020.0,13.5,0004.1,0008.73,0006.30,0006.01
2023-11-26 03:06:00,SystemResetWarning,0829.2,4.99,000.00,018.8,018.0,000.0,027.2,020.0,13.4,0003.8,0008.70,0006.27,0005.98
2023-11-26 03:07:00,SystemResetWarning,0829.2,5.00,000.00,018.8,017.9,000.0,027.2,020.0,13.4,0003.8,0008.63,0006.23,0005.96
2023-11-26 03:08:00,SystemResetWarning,0829.2,5.01,000.00,018.8,017.9,000.0,027.2,020.0,13.4,0003.7,0008.54,0006.19,0005.93
2023-11-26 03:09:00,SystemResetWarning,0829.2,5.00,000.00,018.8,017.8,000.0,027.2,020.0,13.3,0003.6,0008.42,0006.13,0005.89
2023-11-26 03:10:00,SystemResetWarning,0829.2,5.00,000.00,018.7,017.8,000.0,027.2,020.0,13.3,0003.8,0008.39,0006.08,0005.85
2023-11-26 03:11:00,SystemResetWarning,0829.2,5.00,000.00,018.7,017.8,000.0,027.2,020.0,13.3,0003.5,0008.38,0006.06,0005.83
2023-11-26 03:12:00,SystemResetWarning,0829.1,4.99,000.00,018.7,017.8,000.0,027.2,020.2,13.3,0003.3,0008.40,0006.05,0005.81
2023-11-26 03:13:00,SystemResetWarning,0829.1,5.01,000.00,018.9,018.5,000.0,027.1,020.6,13.3,0003.1,0008.31,0006.01,0005.79
2023-11-26 03:14:00,SystemResetWarning,0829.1,5.00,000.00,019.0,019.1,000.0,027.2,020.8,13.2,0003.1,0008.38,0005.99,0005.77
2023-11-26 03:15:00,SystemResetWarning,0829.1,4.99,000.00,019.0,019.0,000.0,027.2,020.5,13.1,0003.2,0008.32,0005.96,0005.76
2023-11-26 03:16:00,SystemResetWarning,0829.1,4.99,000.00,019.0,018.8,000.0,027.2,020.2,13.2,0003.0,0008.38,0005.97,0005.75
2023-11-26 03:17:00,SystemResetWarning,0829.1,5.01,000.00,018.9,018.7,000.0,027.2,020.1,13.2,0002.9,0008.38,0005.97,0005.74
2023-11-26 03:18:00,SystemResetWarning,0829.1,5.00,000.00,018.9,018.5,000.0,027.2,020.0,13.2,0002.3,0008.44,0005.95,0005.71
2023-11-26 03:19:00,SystemResetWarning,0829.1,5.00,000.00,018.9,018.4,000.0,027.2,020.0,13.1,0002.4,0008.42,0005.92,0005.68
2023-11-26 03:20:00,SystemResetWarning,0829.1,5.00,000.00,018.8,018.2,000.0,027.2,020.0,13.1,0002.4,0008.49,0005.92,0005.66
2023-11-26 03:21:00,SystemResetWarning,0829.2,5.00,000.00,018.8,018.1,000.0,027.2,020.0,13.1,0002.2,0008.42,0005.86,0005.63
2023-11-26 03:22:00,SystemResetWarning,0829.1,5.00,000.00,018.8,018.1,000.0,027.2,020.0,13.0,0002.1,0008.37,0005.83,0005.60
2023-11-26 03:23:00,SystemResetWarning,0829.1,5.00,000.00,018.8,018.0,000.0,027.2,020.0,13.0,0001.3,0008.29,0005.79,0005.57
2023-11-26 03:24:00,SystemResetWarning,0829.2,5.00,000.00,018.8,018.0,000.0,027.2,020.0,13.0,0001.6,0008.29,0005.78,0005.55
2023-11-26 03:25:00,SystemResetWarning,0829.2,5.01,000.00,018.8,017.9,000.0,027.2,020.0,13.0,0001.8,0008.07,0005.74,0005.53
2023-11-26 03:26:00,SystemResetWarning,0829.1,5.00,000.00,018.8,017.9,000.0,027.2,020.0,13.0,0001.6,0008.01,0005.71,0005.50
2023-11-26 03:27:00,SystemResetWarning,0829.2,5.00,000.00,018.7,017.8,000.0,027.2,020.0,13.0,0002.1,0007.92,0005.66,0005.47
2023-11-26 03:28:00,SystemResetWarning,0829.2,5.01,000.00,018.7,017.8,000.0,027.2,020.0,13.0,0002.3,0007.92,0005.65,0005.46
2023-11-26 03:29:00,SystemResetWarning,0829.2,5.00,000.00,018.7,017.7,000.0,027.2,020.0,13.0,0002.6,0007.83,0005.65,0005.45
2023-11-26 03:30:00,SystemResetWarning,0829.2,4.99,000.00,018.7,017.7,000.0,027.2,020.0,13.1,0002.3,0007.86,0005.66,0005.46
2023-11-26 03:31:00,SystemResetWarning,0829.2,4.99,000.00,018.8,018.0,000.0,027.2,020.4,13.1,0002.3,0007.79,0005.65,0005.45
2023-11-26 03:32:00,SystemResetWarning,0829.2,5.01,000.00,018.9,018.8,000.0,027.2,020.8,13.1,0002.3,0007.73,0005.65,0005.45
2023-11-26 03:33:00,SystemResetWarning,0829.2,5.01,000.00,019.0,019.1,000.0,027.2,020.8,13.0,0002.0,0007.76,0005.65,0005.45
2023-11-26 03:34:00,SystemResetWarning,0829.2,4.98,000.00,019.0,019.0,000.0,027.2,020.4,13.1,0002.3,0007.76,0005.63,0005.44
2023-11-26 03:35:00,SystemResetWarning,0829.2,5.02,000.00,019.0,018.8,000.0,027.2,020.2,13.1,0002.0,0007.72,0005.61,0005.44
2023-11-26 03:36:00,SystemResetWarning,0829.2,5.01,000.00,018.9,018.6,000.0,027.2,020.0,13.2,0001.4,0007.75,0005.63,0005.46
2023-11-26 03:37:00,SystemResetWarning,0829.2,5.00,000.00,018.9,018.4,000.0,027.2,020.0,13.2,0001.4,0007.80,0005.66,0005.47
2023-11-26 03:38:00,SystemResetWarning,0829.3,4.99,000.00,018.8,018.3,000.0,027.2,020.0,13.3,0001.1,0007.80,0005.68,0005.48
2023-11-26 03:39:00,SystemResetWarning,0829.3,4.99,000.00,018.8,018.2,000.0,027.2,020.0,13.3,0001.5,0007.81,0005.70,0005.51
2023-11-26 03:40:00,SystemResetWarning,0829.3,5.01,000.00,018.8,018.1,000.0,027.2,020.0,13.3,0001.8,0007.85,0005.72,0005.53
2023-11-26 03:41:00,SystemResetWarning,0829.3,5.00,000.00,018.8,018.1,000.0,027.2,020.0,13.3,0002.0,0007.84,0005.72,0005.54
2023-11-26 03:42:00,SystemResetWarning,0829.3,5.00,000.00,018.8,018.0,000.0,027.2,020.0,13.3,0001.9,0007.84,0005.73,0005.56
2023-11-26 03:43:00,SystemResetWarning,0829.3,5.01,000.00,018.8,017.9,000.0,027.2,020.0,13.3,0001.8,0007.90,0005.75,0005.57
2023-11-26 03:44:00,SystemResetWarning,0829.3,4.99,000.00,018.8,017.8,000.0,027.2,020.0,13.3,0002.2,0007.88,0005.75,0005.58
2023-11-26 03:45:00,SystemResetWarning,0829.3,5.00,000.00,018.7,017.8,000.0,027.2,020.0,13.3,0002.1,0007.87,0005.77,0005.61
2023-11-26 03:46:00,SystemResetWarning,0829.3,4.99,000.00,018.7,017.7,000.0,027.2,020.0,13.4,0002.0,0007.92,0005.81,0005.64
2023-11-26 03:47:00,SystemResetWarning,0829.3,5.00,000.00,018.7,017.7,000.0,027.2,020.0,13.4,0002.0,0007.92,0005.81,0005.64
2023-11-26 03:48:00,SystemResetWarning,0829.4,5.01,000.00,018.7,017.6,000.0,027.2,020.0,13.3,0002.0,0007.89,0005.80,0005.64
2023-11-26 03:49:00,SystemResetWarning,0829.3,5.01,000.00,018.7,017.6,000.0,027.2,020.0,13.3,0002.0,0007.86,0005.79,0005.65
2023-11-26 03:50:00,SystemResetWarning,0829.3,5.01,000.00,018.7,017.6,000.0,027.2,020.1,13.3,0001.1,0007.85,0005.79,0005.65
2023-11-26 03:51:00,SystemResetWarning,0829.3,4.99,000.00,018.8,018.1,000.0,027.2,020.5,13.2,0000.8,0007.87,0005.80,0005.67
2023-11-26 03:52:00,SystemResetWarning,0829.4,5.00,000.00,018.9,018.9,000.0,027.2,020.8,13.1,0000.8,0007.91,0005.81,0005.67
2023-11-26 03:53:00,SystemResetWarning,0829.3,5.00,000.00,019.0,019.0,000.0,027.2,020.5,13.1,0000.7,0007.91,0005.80,0005.66
2023-11-26 03:54:00,SystemResetWarning,0829.3,4.99,000.00,019.0,018.9,000.0,027.2,020.2,13.1,0000.6,0008.30,0005.77,0005.64
2023-11-26 03:55:00,SystemResetWarning,0829.3,5.00,000.00,018.9,018.7,000.0,027.2,020.0,13.2,0000.6,0008.30,0005.74,0005.60
2023-11-26 03:56:00,SystemResetWarning,0829.3,5.00,000.00,018.9,018.5,000.0,027.2,020.0,13.2,0001.1,0008.36,0005.74,0005.58
2023-11-26 03:57:00,SystemResetWarning,0829.3,5.00,000.00,018.9,018.3,000.0,027.2,020.0,13.2,0001.0,0008.58,0005.68,0005.53
2023-11-26 03:58:00,SystemResetWarning,0829.3,5.00,000.00,018.8,018.2,000.0,027.2,020.0,13.2,0000.7,0008.73,0005.65,0005.49
2023-11-26 03:59:00,SystemResetWarning,0829.3,5.00,000.00,018.8,018.1,000.0,027.2,020.0,13.2,0000.8,0008.74,0005.64,0005.47
